Location: Grand Rapids
(42.9630°N, 85.6680°W)
Time: 01:43:12
(UTC-04:00)

S-56A Canister/Altair - Pass Details

Date: 02 June 2024
Orbit: 637 x 2489 km, 38.9° (Epoch: 21 June)

Event Time Altitude Azimuth Distance (km) Brightness Sun altitude
Rises 06:53:49 0° 263° (W) 6,162 11.5 6.9°
Reaches altitude 10° 06:57:56 10° 262° (W) 5,126 11.1 7.6°
Maximum altitude 07:12:37 74° 181° (S) 2,198 10.0 10.1°
Drops below altitude 10° 07:23:29 10° 99° (E) 3,912 12.4 12.0°
Sets 07:26:12 0° 98° (E) 4,677 12.8 12.4°
